Flag for Germany Weather past 2 weeks in Sindelfingen, Baden-Württemberg, Germany

Now
61 °F

Sunny.


Feels Like: 61 °F
Forecast: 42 / 71 °F
Wind: 3 mph from Northeast

Location: Stuttgart-Echterdingen


UV Index: 3 (Moderate)

Visibility: 10 mi


Pressure: 30.07 "Hg

Humidity: 55%

Dew point: 45 °F

Location of SindelfingenLocation

Historic Weather in Sindelfingen

°F

Sindelfingen temperature yesterday

Maximum temperature yesterday: 64 °F (at 5:20 PM)
Minimum temperature yesterday: 45 °F (at 3:50 AM)
Average temperature yesterday: 55 °F

Past Weeks' High & Low Weather Summary

 TemperatureHumidityPressure
High68 °F (Apr 23, 12:50 PM)100% (Apr 19, 3:50 AM)30.36 "Hg (Apr 19, 3:50 AM)
Low32 °F (Apr 16, 6:20 AM)21% (Apr 17, 5:20 PM)29.62 "Hg (Apr 21, 10:50 AM)
Average50 °F64%30.02 "Hg
* Reported Apr 8 8:20 PM — Apr 23 8:50 PM, Sindelfingen, Weather by CustomWeather, © 2014

Note: Actual official high and low records may vary slightly from our data, if they occured in-between our weather recording intervals... More about our weather records

Advertising

Historic Weather Conditions — Data for Previous 24 hours

 ConditionsComfort  
Time TempWeatherWind HumidityBarometerVisibility
8:50 PM
Apr 23
61 °FSunny.5 mph55%30.07 "Hg10 mi
8:20 PM63 °FSunny.6 mph49%30.07 "Hg10 mi
7:50 PM63 °FSunny.7 mph49%30.04 "Hg10 mi
7:20 PM66 °FSunny.8 mph40%30.04 "Hg10 mi
6:50 PM66 °FSunny.8 mph43%30.04 "Hg10 mi
6:20 PM68 °FSunny.6 mph40%30.04 "Hg10 mi
5:50 PM68 °FSunny.6 mph40%30.04 "Hg10 mi
5:20 PM68 °FSunny.6 mph43%30.04 "Hg10 mi
4:50 PM68 °FPassing clouds.5 mph43%30.07 "HgN/A
4:20 PM66 °FSunny.1 mph46%30.07 "Hg10 mi
3:50 PM63 °FSunny.2 mph52%30.07 "Hg10 mi
3:20 PM63 °FSunny.5 mph59%30.07 "Hg10 mi
2:50 PM64 °FSunny.8 mph52%30.07 "Hg10 mi
2:20 PM66 °FSunny.7 mph46%30.07 "Hg10 mi
1:50 PM66 °FPassing clouds.5 mph46%30.07 "HgN/A
1:20 PM68 °FSunny.7 mph40%30.07 "Hg10 mi
12:50 PM68 °FPassing clouds.6 mph40%30.09 "HgN/A
12:20 PM66 °FScattered clouds.6 mph49%30.09 "HgN/A
11:50 AM64 °FScattered clouds.6 mph52%30.09 "HgN/A
11:20 AM63 °FPartly sunny.6 mph56%30.09 "HgN/A
10:50 AM61 °FSunny.2 mph55%30.09 "Hg10 mi
10:20 AM59 °FSunny.1 mph63%30.09 "Hg10 mi
9:50 AM57 °FSunny.2 mph67%30.09 "Hg10 mi
9:20 AM54 °FSunny.1 mph77%30.09 "Hg10 mi
8:50 AM50 °FSunny.2 mph82%30.09 "Hg10 mi
8:20 AM48 °FSunny.2 mph87%30.09 "Hg10 mi
7:50 AM46 °FSunny.1 mph87%30.09 "Hg10 mi
7:20 AM45 °FSunny.2 mph87%30.09 "Hg10 mi
6:50 AM45 °FClear.2 mph93%30.09 "Hg10 mi
6:20 AM43 °FClear.1 mph93%30.07 "Hg10 mi
5:50 AM45 °FClear.2 mph87%30.07 "Hg10 mi
5:20 AM46 °FClear.2 mph87%30.07 "Hg10 mi
4:50 AM46 °FClear.2 mph87%30.07 "Hg10 mi
4:20 AM46 °FClear.1 mph87%30.07 "Hg10 mi
3:50 AM46 °FClear.1 mph87%30.07 "Hg10 mi
3:20 AM48 °FClear.1 mph82%30.04 "Hg10 mi
2:50 AM48 °FClear.1 mph82%30.04 "Hg10 mi
2:20 AM50 °FClear.2 mph82%30.04 "Hg10 mi
1:50 AM52 °FClear.1 mph77%30.04 "Hg10 mi
1:20 AM52 °FClear.1 mph77%30.04 "Hg10 mi
12:50 AM50 °FClear.5 mph82%30.04 "Hg10 mi
12:20 AM50 °FClear.3 mph82%30.04 "Hg10 mi
11:50 PM
Apr 22
50 °FClear.3 mph76%30.01 "Hg10 mi
11:20 PM50 °FClear.1 mph71%30.01 "Hg10 mi
10:50 PM52 °FClear.2 mph72%30.01 "Hg10 mi
10:20 PM55 °FClear.2 mph67%30.01 "Hg10 mi
Weather by CustomWeather, © 2014

See weather overview